Regional Weather Roundup
Issued by NWS Upton, NY

Current Version | Previous Version | Graphics & Text | Print | Product List | Glossary Off
Versions: 1 2 3 4 5 6 7 8 9 10 11 12 13 14 15 16 17 18 19 20 21 22 23 24 25 26 27

000
ASUS41 KOKX 210008
RWROKX

REGIONAL WEATHER ROUNDUP
NATIONAL WEATHER SERVICE NEW YORK NY
800 PM EDT SUN AUG 20 2017

NOTE: "FAIR" INDICATES FEW OR NO CLOUDS BELOW 12,000 FEET WITH NO
SIGNIFICANT WEATHER AND/OR OBSTRUCTIONS TO VISIBILITY.

NYZ071-072-176-178-NJZ106-104-210100-
NEW YORK CITY METRO AREA

CITY           SKY/WX    TMP DP  RH WIND       PRES   REMARKS
Central Park   CLEAR     79  58  48 VRB3      30.12R
Bronx Bot Gard   N/A     79  55  44 NW3       30.11R
LaGuardia APRT PTCLDY    80  62  54 NW9       30.09R
Kennedy INTL   PTCLDY    81  58  45 NW13      30.10R
Breezy Point     N/A     77 N/A N/A NW6         N/A
Newark/Liberty PTCLDY    80  58  46 NW7       30.09R
Teterboro      CLEAR     78  58  49 NW7       30.08R
$$

NYZ177-179-078>081-210100-
LONG ISLAND NEW YORK

CITY           SKY/WX    TMP DP  RH WIND       PRES   REMARKS
Jones Beach      N/A     77 N/A N/A NW5         N/A
Matinecock PT    N/A     77 N/A N/A W10         N/A
Farmingdale    CLEAR     78  58  49 NW5       30.09R
MacArthur/ISP  PTCLDY    76  60  57 NW3       30.09R
Shirley        CLEAR     74  62  66 NW6       30.09R
Mt Sinai Harb    N/A    N/A N/A N/A W3          N/A
Westhampton    CLEAR     73  58  59 NW3       30.10R
East Hampton   FAIR      70  63  78 CALM      30.07R
Montauk          N/A     75  65  70 W7        30.08R
$$

NYZ052-065-067-210100-
HUDSON VALLEY

CITY           SKY/WX    TMP DP  RH WIND       PRES   REMARKS
White Plains   PTCLDY    72  60  66 W3        30.10R
Larchmont Harb   N/A     79 N/A N/A W6          N/A
Croton On Huds   N/A     79 N/A N/A W8          N/A
Newburgh       CLEAR     75  64  69 VRB5      30.11R
Montgomery     PTCLDY    71  63  75 W6        30.09S
Poughkeepsie   CLEAR     72  63  73 CALM      30.08R
Albany         PTCLDY    73  58  59 W6        30.07R
$$

NJZ001-105-106-008-010-013-015-019>022-104-210100-
NEW JERSEY

CITY           SKY/WX    TMP DP  RH WIND       PRES   REMARKS
Newark/Liberty PTCLDY    80  58  46 NW7       30.09R
Teterboro      CLEAR     78  58  49 NW7       30.08R
Caldwell       CLEAR     75  63  66 CALM      30.10S
Somerville     CLEAR     71  65  81 CALM      30.08S
Linden         FAIR      79  57  46 W3        30.10R
Perth Amboy      N/A     79 N/A N/A NW2         N/A
Sussex         CLEAR     70  66  87 CALM      30.11S
Andover          N/A     69  65  86 CALM      30.12R
Trenton        CLEAR     78  62  57 SW3       30.10S
Millville      CLEAR     75  69  81 CALM      30.12R
Atlantic City  CLEAR     79  64  60 SW3       30.11R
Wrightstown    CLEAR     76  60  57 CALM      30.08S
Toms River     CLEAR     73  67  81 CALM      30.12R
Belmar         CLEAR     75  63  66 CALM      30.12R
$$

PAZ047>061-062-071-210100-
EASTERN PENNSYLVANIA

CITY           SKY/WX    TMP DP  RH WIND       PRES   REMARKS
Philadelphia   PTCLDY    81  59  47 N7        30.11S
Allentown      CLEAR     73  62  68 SW5       30.11R
Scranton       CLEAR     75  62  64 CALM      30.13R
$$

CTZ002-004>006-009-010-012-RIZ004-006-007-MAZ004-011-015-210100-
SOUTHERN NEW ENGLAND
 IN CT

CITY           SKY/WX    TMP DP  RH WIND       PRES   REMARKS
Bradley INTL   PTCLDY    74  58  57 CALM      30.07R
Hartford       CLEAR     78  57  48 W7        30.07R
Danbury        CLEAR     72  63  73 CALM      30.11R
Wtrbury/Oxford CLEAR     71  60  68 N3        30.11R
Norwalk Harbor   N/A     77 N/A N/A W6          N/A
Bridgeport     CLEAR     78  59  51 W6        30.08R
Meriden        CLEAR     73  58  59 NW5       30.08R
New Haven      CLEAR     78  61  55 NW3       30.08R
Chester        FAIR      73  59  60 CALM      30.09R
Groton         CLEAR     76  59  55 W6        30.06R
Wilimantic     CLEAR     73  62  68 CALM      30.07R

 IN RI

CITY           SKY/WX    TMP DP  RH WIND       PRES   REMARKS
Providence     PTCLDY    77  59  53 NW6       30.05R
Block Island   CLEAR     71  64  78 W7        30.07R
Westerly       CLEAR     75  61  61 CALM      30.07R
 IN MA

CITY           SKY/WX    TMP DP  RH WIND       PRES   REMARKS
Boston         PTCLDY    79  54  41 NW8       30.03R
Worcester      CLEAR     68  55  63 W6        30.09R
Westfield      CLEAR     74  59  59 W8        30.07R
Provincetown   CLEAR     70  64  81 N5        30.04R
Nantucket      CLEAR     71  66  84 W8        30.03R
$$

ANZ330-335-338-340-345-350-353-355-210100-
COASTAL MARINE OBSERVATIONS


STATION/POSITION TIME  SKY/WX   TEMP    WIND        PRES    VSBY  WAVE
                                AIR SEA DIR/SP/G                  HT/PER
                 (UTC)          (F)     (DEG/KT/KT) (MB)    (MI)  (FT/S)
NY HARB ENTRANCE 2250            78 76  280/  8/ 10 1018.0          2/ 8
GREAT SOUTH BAY  2330            80 79  290/  6/ 10   N/A
23 SSW MONTAUK P 2250            74 73              1017.9          3/ 7
15 E BARNEGAT LI 2330               78                N/A           2/ 6
HUDSON CANYON    2250            75 74  280/  8/ 10 1018.2          3/ 5
KINGS POINT      2330            79 75  340/  9/ 12 1018.8
EXECUTION ROCKS  NOT AVBL
WESTERN LI SOUND NOT AVBL
CENTRAL LI SOUND NOT AVBL
EASTERN LI SOUND NOT AVBL
ROBBINS REEF     2330                   310/  9/ 12 1019.6
$$


>>>>>>>>>>>>>>>>>>>>>>>>>>>> KEY <<<<<<<<<<<<<<<<<<<<<<<<<<<
>                                                          <
>     SKY/WX - Sky Condition/Present Weather               <
>     TMP    - Temperature in Fahrenheit                   <
>     DP     - Dew Point in Fahrenheit                     <
>     RH     - Relative Humidity in Percent                <
>     WIND   - Direction (from) and Speed in MPH           <
>     PRES   - Mean Sea Level Pressure (inches of Hg)      <
>     WCI    - Wind Chill Index                            <
>     VSB    - VISIBILITY IN MILES                         <
>     HX     - HEAT INDEX                                  <
>     TC     - TEMPERATURE IN CELSIUS                      <
>     VRB    - VARIABLE WIND DIRECTION                     <
>                                                          <
>>>>>>>>>>>>>>>>>>>>>>>>>>>> KEY <<<<<<<<<<<<<<<<<<<<<<<<<<<




USA.gov is the U.S. government's official web portal to all federal, state and local government web resources and services.